Regional Weather Roundup
Issued by NWS

Home | Current Version | Previous Version | Graphics & Text | Print | Product List | Glossary On
Versions: 1 2 3 4 5 6 7 8 9 10 11 12 13 14 15 16 17 18 19 20 21 22 23 24 25 26 27 28 29 30 31 32 33 34 35 36 37 38 39 40 41 42 43 44 45 46 47 48 49 50
000
ASUS43 KTOP 270259
RWRKS

WEATHER ROUNDUP FOR KANSAS
NATIONAL WEATHER SERVICE GOODLAND KS
900 PM CST WED NOV 26 2014

NOTE:  "FAIR" INDICATES FEW OR NO CLOUDS BELOW 12,000 FEET WITH NO
SIGNIFICANT WEATHER AND/OR OBSTRUCTIONS TO VISIBILITY.

KSZ001>006-013>018-027>032-041>047-270400-
NORTHWEST KANSAS

CITY           SKY/WX    TMP DP  RH WIND       PRES   REMARKS
GOODLAND       CLOUDY    26  23  88 SE5       30.33R
HAYS           MOCLDY    30  16  55 N8        30.40F
HILL CITY      CLOUDY    33  19  56 NE3       30.41R
RUSSELL        PTCLDY    29  18  63 N3        30.40R
$$

KSZ061>065-074>080-084>089-270400-
SOUTHWEST KANSAS

CITY           SKY/WX    TMP DP  RH WIND       PRES   REMARKS
DODGE CITY     CLEAR     25  14  63 N6        30.38S
ELKHART          N/A     27  15  61 SE7         N/A
GARDEN CITY    PTCLDY    28  16  60 NE7       30.37R
GREAT BEND     MOCLDY    34  18  51 NE10      30.40R WCI  26
LIBERAL        PTCLDY    34  16  47 NE7       30.40R
$$

KSZ066>073-081>083-090>101-270400-
SOUTHEAST KANSAS

CITY           SKY/WX    TMP DP  RH WIND       PRES   REMARKS
CHANUTE        CLEAR     31  23  72 NW13      30.36R WCI  21
COFFEYVILLE    CLEAR     36  24  62 NW18G28   30.37R WCI  26
HUTCHINSON     PTCLDY    33  20  58 N13       30.41R WCI  24
MEDICINE LODGE   N/A     35  22  58 N5        30.38F
NEWTON         CLEAR     30  18  59 N9        30.41R
PARSONS        CLEAR     34  24  67 NW13G23   30.37R WCI  25
WICHITA INTL   PTCLDY    36  21  54 N15G22    30.39R WCI  27
WICHITA JABRA  CLEAR     32  22  66 N14       30.39R WCI  22
WICHITA MCCONL CLEAR     34  21  58 N16G22    30.40R WCI  24
WINFIELD       PTCLDY    36  24  62 N15       30.39R WCI  27
$$

KSZ007>012-019>026-033>040-048>060-102>105-270400-
NORTHEAST KANSAS

CITY           SKY/WX    TMP DP  RH WIND       PRES   REMARKS
CONCORDIA      PTCLDY    28  19  69 N9        30.42R
EMPORIA        CLEAR     29  21  72 NW18G24   30.38R WCI  16
LAWRENCE       CLOUDY    30  21  69 NW16G26   30.37R WCI  19
MANHATTAN      CLEAR     27  20  75 CALM      30.42R
OLATHE IND     CLOUDY    29  22  75 NW18      30.33R WCI  16
OLATHE EXE     CLOUDY    30  23  75 NW16G25   30.31R WCI  19
SALINA         CLEAR     27  19  72 NW10      30.43R WCI  17
TOPEKA BILLARD CLOUDY    30  21  69 NW15      30.39R WCI  19
TOPEKA FORBES  CLOUDY    30  20  66 NW17      30.37R WCI  18
$$


USA.gov is the U.S. government's official web portal to all federal, state and local government web resources and services.